AFR027 NTAA-KLAX

Flight info

Callsign AFR027
Flight time N/A
Altitude 39000
Route IKELO4W IKELO DCT MIKAT A220 MAEVA DCT 10N138W DCT BORIC B454 ARENS/N0481F410 B454 TONYS B200 FICKY GOATZ2
Aircraft A359/H-SDE2E3GHIJ3J4J5LM1ORWXY/LB1D1

Departure

Time N/A
Airport Fa'a'ā International Airport (NTAA)

Arrival

Time 2026-04-25 12:13
Airport Los Angeles International Airport (KLAX)
Time Latitude Longitude Altitude Speed Heading
2026-04-25 10:52 26.21828 -126.40132 41073 ft 572 kts 30°
2026-04-25 10:53 26.28203 -126.34841 41076 ft 572 kts 30°
2026-04-25 10:53 26.34580 -126.29542 41073 ft 572 kts 30°
2026-04-25 10:54 26.40954 -126.24238 41069 ft 572 kts 30°
2026-04-25 10:54 26.47332 -126.18923 41075 ft 572 kts 30°
2026-04-25 10:55 26.53712 -126.13599 41078 ft 573 kts 30°
2026-04-25 10:55 26.60090 -126.08268 41075 ft 573 kts 30°
2026-04-25 10:56 26.66465 -126.02934 41075 ft 573 kts 30°
2026-04-25 10:56 26.72843 -125.97589 41075 ft 573 kts 30°
2026-04-25 10:57 26.79219 -125.92237 41075 ft 573 kts 30°
2026-04-25 10:57 26.85593 -125.86880 41075 ft 573 kts 30°
2026-04-25 10:58 26.91964 -125.81518 41076 ft 573 kts 30°
2026-04-25 10:58 26.98328 -125.76153 41079 ft 572 kts 30°
2026-04-25 10:59 27.04693 -125.70780 41075 ft 573 kts 31°
2026-04-25 10:59 27.11056 -125.65401 41075 ft 573 kts 31°
2026-04-25 11:00 27.17421 -125.60012 41075 ft 573 kts 31°
2026-04-25 11:00 27.23784 -125.54617 41075 ft 573 kts 31°
2026-04-25 11:01 27.30144 -125.49217 41074 ft 573 kts 31°
2026-04-25 11:01 27.36453 -125.43852 41072 ft 572 kts 31°
2026-04-25 11:02 27.42808 -125.38440 41072 ft 572 kts 31°
2026-04-25 11:02 27.49155 -125.33027 41075 ft 572 kts 31°
2026-04-25 11:03 27.55538 -125.27575 41076 ft 572 kts 31°
2026-04-25 11:03 27.61885 -125.22146 41086 ft 572 kts 31°
2026-04-25 11:04 27.68180 -125.16753 41075 ft 572 kts 31°
2026-04-25 11:04 27.74510 -125.11322 41075 ft 571 kts 31°
2026-04-25 11:05 27.80835 -125.05887 41074 ft 571 kts 31°
2026-04-25 11:05 27.87156 -125.00447 41072 ft 572 kts 31°
2026-04-25 11:06 27.93488 -124.94990 41100 ft 572 kts 31°
2026-04-25 11:06 27.99811 -124.89533 41075 ft 572 kts 31°
2026-04-25 11:07 28.06133 -124.84067 41069 ft 572 kts 32°
2026-04-25 11:07 28.12452 -124.78597 41085 ft 572 kts 32°
2026-04-25 11:08 28.18772 -124.73117 41072 ft 572 kts 32°
2026-04-25 11:08 28.25085 -124.67635 41124 ft 572 kts 32°
2026-04-25 11:09 28.31397 -124.62145 41074 ft 571 kts 32°
2026-04-25 11:09 28.37703 -124.56651 41072 ft 571 kts 32°
2026-04-25 11:10 28.44010 -124.51149 41071 ft 571 kts 32°
2026-04-25 11:10 28.50305 -124.45650 41070 ft 571 kts 32°
2026-04-25 11:11 28.56605 -124.40137 41071 ft 572 kts 32°
2026-04-25 11:11 28.62913 -124.34608 41070 ft 572 kts 32°
2026-04-25 11:12 28.69215 -124.29075 41070 ft 572 kts 32°
2026-04-25 11:12 28.75470 -124.23576 41065 ft 572 kts 32°
2026-04-25 11:13 28.81771 -124.18028 41068 ft 572 kts 32°
2026-04-25 11:13 28.88072 -124.12471 41067 ft 573 kts 32°
2026-04-25 11:14 28.94368 -124.06909 41062 ft 571 kts 32°
2026-04-25 11:14 29.00652 -124.01348 41065 ft 571 kts 32°
2026-04-25 11:15 29.06929 -123.95786 41056 ft 571 kts 32°
2026-04-25 11:15 29.13210 -123.90212 41056 ft 571 kts 33°
2026-04-25 11:16 29.22620 -123.81844 41079 ft 571 kts 33°
2026-04-25 11:16 29.28895 -123.76252 41061 ft 571 kts 33°
2026-04-25 11:17 29.35160 -123.70660 41050 ft 571 kts 33°
2026-04-25 11:17 29.41419 -123.65065 41053 ft 571 kts 33°
2026-04-25 11:18 29.47685 -123.59455 41048 ft 572 kts 33°
2026-04-25 11:18 29.53953 -123.53834 41058 ft 572 kts 33°
2026-04-25 11:19 29.60215 -123.48208 41057 ft 571 kts 33°
2026-04-25 11:19 29.66462 -123.42586 41052 ft 570 kts 33°
2026-04-25 11:20 29.72699 -123.36966 41051 ft 570 kts 33°
2026-04-25 11:20 29.78946 -123.31328 41048 ft 570 kts 33°
2026-04-25 11:21 29.85142 -123.25726 41047 ft 570 kts 33°
2026-04-25 11:21 29.91417 -123.20043 41047 ft 569 kts 33°
2026-04-25 11:22 29.96590 -123.15351 41037 ft 569 kts 33°
2026-04-25 11:22 30.03827 -123.08777 41048 ft 570 kts 33°
2026-04-25 11:23 30.10048 -123.03116 41048 ft 570 kts 33°
2026-04-25 11:23 30.16275 -122.97439 41044 ft 570 kts 34°
2026-04-25 11:24 30.22496 -122.91759 41051 ft 569 kts 34°
2026-04-25 11:24 30.28701 -122.86083 41046 ft 569 kts 34°
2026-04-25 11:25 30.33760 -122.81183 41050 ft 573 kts 40°
2026-04-25 11:25 30.40461 -122.73694 41042 ft 573 kts 41°
2026-04-25 11:26 30.45172 -122.68280 41042 ft 574 kts 41°
2026-04-25 11:26 30.50828 -122.61756 41036 ft 574 kts 41°
2026-04-25 11:27 30.56489 -122.55236 41042 ft 573 kts 41°
2026-04-25 11:27 30.61193 -122.49816 41039 ft 572 kts 41°
2026-04-25 11:28 30.67792 -122.42202 41039 ft 572 kts 41°
2026-04-25 11:28 30.73437 -122.35677 41037 ft 572 kts 41°
2026-04-25 11:29 30.79076 -122.29149 41034 ft 572 kts 42°
2026-04-25 11:29 30.84718 -122.22604 41034 ft 573 kts 42°
2026-04-25 11:30 30.90356 -122.16053 41046 ft 572 kts 42°
2026-04-25 11:30 30.95982 -122.09505 41038 ft 571 kts 42°
2026-04-25 11:31 31.01604 -122.02949 41034 ft 572 kts 42°
2026-04-25 11:31 31.07217 -121.96393 41031 ft 572 kts 42°
2026-04-25 11:32 31.12833 -121.89821 41031 ft 572 kts 42°
2026-04-25 11:32 31.18443 -121.83244 41030 ft 572 kts 42°
2026-04-25 11:33 31.24052 -121.76657 41052 ft 572 kts 42°
2026-04-25 11:33 31.29652 -121.70069 41025 ft 571 kts 42°
2026-04-25 11:34 31.35244 -121.63479 41026 ft 570 kts 42°
2026-04-25 11:34 31.40829 -121.56885 41023 ft 570 kts 42°
2026-04-25 11:35 31.46412 -121.50282 41015 ft 570 kts 42°
2026-04-25 11:35 31.51989 -121.43673 41018 ft 571 kts 42°
2026-04-25 11:36 31.56839 -121.36335 41021 ft 573 kts 65°
2026-04-25 11:36 31.59870 -121.27694 41015 ft 574 kts 70°
2026-04-25 11:37 31.62811 -121.18979 41015 ft 575 kts 69°
2026-04-25 11:37 31.65790 -121.10288 40999 ft 574 kts 69°
2026-04-25 11:38 31.68758 -121.01660 41000 ft 574 kts 69°
2026-04-25 11:38 31.71743 -120.92970 41007 ft 573 kts 69°
2026-04-25 11:39 31.74743 -120.84219 41007 ft 574 kts 69°
2026-04-25 11:39 31.77720 -120.75512 41007 ft 574 kts 69°
2026-04-25 11:40 31.80671 -120.66861 41004 ft 574 kts 69°
2026-04-25 11:40 31.83635 -120.58144 41001 ft 574 kts 69°
2026-04-25 11:41 31.86592 -120.49428 40998 ft 574 kts 69°
2026-04-25 11:41 31.89542 -120.40711 40999 ft 574 kts 69°
2026-04-25 11:42 31.92493 -120.31976 40999 ft 575 kts 69°
2026-04-25 11:42 31.94234 -120.27737 40998 ft 575 kts 58°
2026-04-25 11:42 31.96567 -120.23931 41005 ft 571 kts 46°
2026-04-25 11:43 32.01940 -120.17060 40993 ft 571 kts 44°
2026-04-25 11:43 32.07390 -120.10224 40986 ft 572 kts 44°
2026-04-25 11:44 32.10104 -120.06803 40788 ft 572 kts 44°
2026-04-25 11:44 32.12817 -120.03375 40541 ft 572 kts 44°
2026-04-25 11:44 32.15537 -119.99933 40298 ft 573 kts 44°
2026-04-25 11:44 32.18249 -119.96497 40025 ft 573 kts 44°
2026-04-25 11:45 32.20962 -119.93055 39349 ft 573 kts 44°
2026-04-25 11:45 32.23691 -119.89590 38563 ft 577 kts 44°
2026-04-25 11:45 32.26422 -119.86119 37784 ft 577 kts 44°
2026-04-25 11:45 32.29154 -119.82642 37109 ft 575 kts 44°
2026-04-25 11:46 32.31874 -119.79177 36449 ft 574 kts 44°
2026-04-25 11:46 32.34586 -119.75720 35776 ft 573 kts 44°
2026-04-25 11:46 32.37292 -119.72266 35091 ft 573 kts 44°
2026-04-25 11:46 32.40005 -119.68803 34378 ft 573 kts 44°
2026-04-25 11:47 32.42717 -119.65336 33524 ft 575 kts 44°
2026-04-25 11:47 32.45402 -119.61901 32685 ft 575 kts 44°
2026-04-25 11:47 32.48116 -119.58427 31843 ft 575 kts 44°
2026-04-25 11:47 32.50868 -119.54904 31090 ft 574 kts 44°
2026-04-25 11:48 32.53558 -119.51447 30498 ft 568 kts 45°
2026-04-25 11:48 32.56193 -119.48057 29918 ft 564 kts 44°
2026-04-25 11:48 32.58840 -119.44652 29268 ft 558 kts 44°
2026-04-25 11:48 32.61455 -119.41285 28678 ft 552 kts 45°
2026-04-25 11:49 32.64040 -119.37955 28100 ft 547 kts 45°
2026-04-25 11:49 32.66611 -119.34639 27520 ft 541 kts 45°
2026-04-25 11:49 32.69147 -119.31366 26960 ft 536 kts 45°
2026-04-25 11:49 32.71655 -119.28127 26380 ft 531 kts 45°
2026-04-25 11:50 32.74135 -119.24921 25838 ft 525 kts 45°
2026-04-25 11:50 32.76597 -119.21734 25281 ft 520 kts 45°
2026-04-25 11:50 32.79029 -119.18585 24733 ft 515 kts 45°
2026-04-25 11:50 32.81439 -119.15461 24184 ft 510 kts 46°
2026-04-25 11:51 32.83824 -119.12367 23637 ft 505 kts 46°
2026-04-25 11:51 32.86187 -119.09298 23011 ft 500 kts 46°
2026-04-25 11:51 32.88520 -119.06266 22457 ft 493 kts 46°
2026-04-25 11:51 32.90822 -119.03270 21917 ft 487 kts 46°
2026-04-25 11:52 32.93089 -119.00319 21368 ft 480 kts 46°
2026-04-25 11:52 32.95330 -118.97399 20826 ft 474 kts 46°
2026-04-25 11:52 32.97540 -118.94517 20285 ft 469 kts 46°
2026-04-25 11:52 32.99728 -118.91662 19753 ft 463 kts 46°
2026-04-25 11:53 33.01880 -118.88852 19200 ft 458 kts 46°
2026-04-25 11:53 33.04019 -118.86056 18669 ft 453 kts 46°
2026-04-25 11:53 33.06132 -118.83293 18112 ft 449 kts 46°
2026-04-25 11:53 33.08224 -118.80554 17528 ft 444 kts 46°
2026-04-25 11:54 33.10280 -118.77859 17229 ft 432 kts 46°
2026-04-25 11:54 33.12260 -118.75261 17093 ft 416 kts 46°
2026-04-25 11:54 33.16036 -118.70304 16512 ft 396 kts 46°
2026-04-25 11:55 33.17258 -118.68701 16224 ft 394 kts 46°
2026-04-25 11:55 33.19706 -118.65467 15975 ft 393 kts 47°
2026-04-25 11:55 33.21488 -118.62969 15960 ft 395 kts 48°
2026-04-25 11:55 33.23249 -118.60465 15794 ft 394 kts 48°
2026-04-25 11:56 33.25013 -118.57964 15636 ft 393 kts 48°
2026-04-25 11:56 33.26785 -118.55462 15524 ft 394 kts 47°
2026-04-25 11:56 33.28549 -118.52974 15415 ft 394 kts 47°
2026-04-25 11:56 33.30319 -118.50480 15321 ft 393 kts 47°
2026-04-25 11:57 33.32085 -118.47983 15215 ft 393 kts 48°
2026-04-25 11:57 33.33559 -118.45235 15104 ft 394 kts 67°
2026-04-25 11:57 33.34145 -118.42112 15017 ft 390 kts 90°
2026-04-25 11:57 33.34051 -118.38888 14918 ft 388 kts 97°
2026-04-25 11:58 33.33831 -118.35670 14814 ft 388 kts 97°
2026-04-25 11:58 33.33616 -118.32454 14718 ft 388 kts 97°
2026-04-25 11:58 33.33415 -118.29234 14607 ft 388 kts 97°
2026-04-25 11:58 33.33223 -118.26018 14496 ft 388 kts 97°
2026-04-25 11:59 33.33035 -118.22804 14398 ft 387 kts 96°
2026-04-25 11:59 33.32850 -118.19597 14302 ft 386 kts 96°
2026-04-25 11:59 33.32666 -118.16394 14191 ft 386 kts 96°
2026-04-25 12:00 33.32894 -118.10014 13977 ft 389 kts 70°
2026-04-25 12:00 33.34200 -118.07219 13668 ft 385 kts 48°
2026-04-25 12:00 33.37909 -118.02668 12554 ft 379 kts 41°
2026-04-25 12:01 33.39942 -118.00728 12101 ft 368 kts 25°
2026-04-25 12:01 33.42295 -117.99815 11672 ft 349 kts 360°
2026-04-25 12:01 33.44683 -117.99774 11272 ft 340 kts 352°
2026-04-25 12:01 33.47038 -117.99907 10885 ft 338 kts 351°
2026-04-25 12:02 33.51661 -118.00171 10316 ft 323 kts 352°
2026-04-25 12:02 33.53865 -118.00283 10142 ft 311 kts 352°
2026-04-25 12:02 33.55999 -118.00390 9847 ft 304 kts 352°
2026-04-25 12:03 33.58094 -118.00496 9432 ft 300 kts 352°
2026-04-25 12:03 33.60167 -118.00606 9028 ft 296 kts 353°
2026-04-25 12:03 33.62215 -118.00699 8604 ft 294 kts 353°
2026-04-25 12:03 33.64245 -118.00814 8213 ft 289 kts 351°
2026-04-25 12:04 33.66187 -118.01275 7851 ft 281 kts 341°
2026-04-25 12:04 33.68038 -118.01901 7727 ft 275 kts 340°
2026-04-25 12:04 33.69879 -118.02545 7603 ft 275 kts 340°
2026-04-25 12:04 33.71712 -118.03183 7473 ft 271 kts 340°
2026-04-25 12:05 33.73487 -118.03796 7350 ft 259 kts 340°
2026-04-25 12:05 33.75178 -118.04379 7181 ft 247 kts 340°
2026-04-25 12:05 33.76796 -118.04938 7054 ft 236 kts 340°
2026-04-25 12:05 33.78337 -118.05502 6917 ft 228 kts 337°
2026-04-25 12:06 33.79816 -118.06174 6691 ft 226 kts 335°
2026-04-25 12:06 33.81269 -118.06872 6417 ft 225 kts 335°
2026-04-25 12:06 33.82717 -118.07571 6138 ft 224 kts 335°
2026-04-25 12:06 33.84169 -118.08271 5878 ft 225 kts 336°
2026-04-25 12:07 33.85621 -118.08970 5615 ft 226 kts 336°
2026-04-25 12:07 33.87078 -118.09671 5343 ft 226 kts 336°
2026-04-25 12:07 33.88544 -118.10364 5093 ft 226 kts 339°
2026-04-25 12:07 33.90086 -118.10755 4857 ft 228 kts 353°
2026-04-25 12:08 33.91657 -118.10889 4666 ft 224 kts 355°
2026-04-25 12:08 33.93153 -118.11337 4485 ft 222 kts 332°
2026-04-25 12:08 33.94440 -118.12347 4178 ft 221 kts 322°
2026-04-25 12:08 33.95555 -118.13617 3896 ft 221 kts 303°
2026-04-25 12:09 33.96005 -118.15348 3680 ft 218 kts 272°
2026-04-25 12:09 33.95918 -118.17155 3578 ft 218 kts 260°
2026-04-25 12:09 33.95708 -118.18964 3329 ft 218 kts 261°
2026-04-25 12:09 33.95591 -118.20160 3131 ft 217 kts 262°
2026-04-25 12:10 33.95353 -118.22566 2730 ft 215 kts 261°
2026-04-25 12:10 33.95230 -118.23745 2525 ft 212 kts 261°
2026-04-25 12:10 33.95056 -118.25452 2257 ft 199 kts 261°
2026-04-25 12:10 33.94893 -118.27047 1998 ft 186 kts 261°
2026-04-25 12:11 33.94739 -118.28541 1749 ft 173 kts 261°
2026-04-25 12:11 33.94596 -118.29940 1503 ft 164 kts 261°
2026-04-25 12:11 33.94461 -118.31255 1302 ft 152 kts 261°
2026-04-25 12:11 33.94335 -118.32475 1089 ft 142 kts 262°
2026-04-25 12:12 33.94217 -118.33626 865 ft 137 kts 262°
2026-04-25 12:12 33.94103 -118.34755 685 ft 135 kts 262°
2026-04-25 12:12 33.93989 -118.35877 495 ft 135 kts 262°
2026-04-25 12:12 33.93875 -118.36994 356 ft 135 kts 262°
2026-04-25 12:13 33.93753 -118.38114 195 ft 136 kts 261°
2026-04-25 12:13 33.93639 -118.39226 100 ft 123 kts 262°
2026-04-25 12:13 33.93566 -118.39951 104 ft 49 kts 263°
2026-04-25 12:13 33.93535 -118.40345 103 ft 47 kts 270°
2026-04-25 12:14 33.93594 -118.40654 104 ft 31 kts 281°
2026-04-25 12:14 33.93585 -118.40843 102 ft 17 kts 264°
2026-04-25 12:14 33.93570 -118.40994 101 ft 19 kts 261°
2026-04-25 12:14 33.93556 -118.41125 102 ft 12 kts 266°
2026-04-25 12:15 33.93578 -118.41229 105 ft 14 kts 298°
2026-04-25 12:15 33.93657 -118.41269 103 ft 13 kts 351°
2026-04-25 12:15 33.93735 -118.41301 102 ft 10 kts 300°
2026-04-25 12:15 33.93736 -118.41396 103 ft 13 kts 264°
2026-04-25 12:16 33.93724 -118.41514 104 ft 15 kts 263°
2026-04-25 12:16 33.93716 -118.41639 103 ft 14 kts 278°
2026-04-25 12:16 33.93799 -118.41695 102 ft 16 kts 353°
2026-04-25 12:16 33.93924 -118.41712 101 ft 20 kts 354°
2026-04-25 12:17 33.94063 -118.41733 100 ft 19 kts 352°
2026-04-25 12:17 33.94113 -118.41737 101 ft 0 kts 358°
2026-04-25 12:17 33.94121 -118.41739 101 ft 4 kts 351°
2026-04-25 12:18 33.94174 -118.41750 102 ft 11 kts 350°
2026-04-25 12:18 33.94261 -118.41763 100 ft 14 kts 353°
2026-04-25 12:18 33.94332 -118.41765 100 ft 9 kts 20°
2026-04-25 12:18 33.94354 -118.41699 100 ft 10 kts 103°
2026-04-25 12:19 33.94347 -118.41596 100 ft 4 kts 82°
2026-04-25 12:19 33.94349 -118.41573 100 ft 0 kts 83°